Location: Lafig�re
(44.4503°N, 4.0357°E)
Time: 17:33:13
(UTC+00:00)

S-56A Canister/Altair - Pass Details

Date: 29 January 2021
Orbit: 631 x 2501 km, 38.9° (Epoch: 04 March)

Event Time Altitude Azimuth Distance (km) Brightness Sun altitude
Rises 06:30:27 0° 261° (W) 3,000 - -6.7°
Exits shadow 06:31:20 - 255° (WSW) 2,775 9.9 -6.5°
Reaches altitude 10° 06:34:49 10° 221° (SW) 2,292 9.8 -5.9°
Maximum altitude 06:35:54 11° 209° (SSW) 2,317 9.9 -5.7°
Drops below altitude 10° 06:37:03 10° 197° (SSW) 2,436 10.2 -5.5°
Sets 06:42:31 0° 161° (SSE) 3,811 11.7 -4.6°
